PAKSAT-1R

Last updated on Sun Mar 15 2026 00:02:53 GMT+0000 (Coordinated Universal Time)

1 37779U 11042A 26073.57600215 .00000153 00000+0 00000+0 0 9992 2 37779 0.4420 85.5864 0002357 302.7147 29.1451 1.00268130 53520
UTC large
Height (km)
Speed (km/s)
/
Latitude / Longitude
Inclination (degrees)
Orbital Period (minutes)
Azimuth
Elevation
Range (km)
Doppler Factor

Next 0 passes for location: London (51.5072 / 0.1276)

Sorry there are no passes over London.